weather.gov     
National Weather Service

Regional Weather Roundup
NWS Homepage
This page is being discontinued on March 12, 2014.
The same data is available at this site. Please update your bookmarks.
Thank you, and we apologize for the inconvenience.
Please send an email to SR-SRH.Webmaster@noaa.gov with any concerns.


Current Version
Previous Version:    01  02  03  04  05  06  07  08  09  10  11  12  13  14  15  16  17  18  19  20  21  22  23  24  25  26  27  28  29  30  
   31  32  33  34  35  36  37  38  39  40  41  42  43  44  45  46  47  48  49  50  51  52  53  54  55  56  57  58  59  60  
[Printable]
064
ASUS44 KFWD 280415
RWRTX
NORTH TEXAS HOURLY WEATHER ROUNDUP
NATIONAL WEATHER SERVICE FORT WORTH TX
1000 PM CST THU NOV 27 2014

NOTE: "FAIR" INDICATES FEW OR NO CLOUDS BELOW 12,000 FEET WITH NO
SIGNIFICANT WEATHER AND/OR OBSTRUCTIONS TO VISIBILITY.

TXZ118-119-280500-
DALLAS/FORT WORTH METROPLEX

CITY           SKY/WX    TMP DP  RH WIND       PRES   REMARKS
DFW AIRPORT    CLEAR     46  28  49 S9        30.36F
DALLAS LOVE    CLEAR     42  30  62 SE7       30.37F WCI  38
FTW MEACHAM    CLEAR     47  28  47 S5        30.36F
DAL-EXECUTIVE  CLEAR     45  26  47 S3        30.36F
FTW-ALLIANCE   CLEAR     42  28  57 S5        30.35F WCI  39
FTW-SPINKS     CLEAR     42  28  58 CALM      30.38F
ARLINGTON      CLEAR     38  28  67 CALM      30.37F
GRAND PRAIRIE  CLEAR     47  33  57 CALM      30.39F
ADDISON        CLEAR     49  31  51 CALM      30.39S
MESQUITE       CLEAR     40  26  57 CALM      30.39F
LANCASTER      CLEAR     40  27  60 CALM      30.39F
$$

TXZ091>094-102>105-117-120-121-131>134-280500-
NORTH CENTRAL TEXAS

CITY           SKY/WX    TMP DP  RH WIND       PRES   REMARKS
SHRMAN/DENISON CLEAR     46  27  47 SE8       30.38R
BOWIE          CLEAR     40  26  57 SE3       30.34S
BRIDGEPORT     CLEAR     45  29  53 S3        30.36F
DECATUR        CLEAR     47  25  41 S8        30.35S
DENTON         CLEAR     42  26  53 SE5       30.36F WCI  39
MCKINNEY       CLEAR     39  24  55 CALM      30.38F
GREENVILLE     CLEAR     37  28  70 CALM      30.39F
ROCKWALL       CLEAR     47  23  38 SE6       30.37F
TERRELL        CLEAR     38  30  73 NE3       30.40S
WAXAHACHIE     CLEAR     43  28  56 CALM      30.39F
CLEBURNE       CLEAR     45  27  49 SE5       30.39S
GRANBURY       CLEAR     46  32  56 CALM      30.37F
$$

TXZ083>090-098>101-113>116-127>130-139>142-154-155-280500-
WESTERN NORTH TEXAS

CITY           SKY/WX    TMP DP  RH WIND       PRES   REMARKS
WICHITA FALLS  CLEAR     43  28  55 S12       30.31S WCI  37
WF-KICKAPOO    CLEAR     41  29  62 SE8       30.33S WCI  36
VERNON         CLEAR     43  30  61 S8        30.29F WCI  38
ABILENE        CLEAR     49  31  49 S10       30.31F
ABILENE-DYESS  CLEAR     46  32  58 S8        30.30F
BRECKENRIDGE   CLEAR     49  29  46 S8        30.32S
GRAHAM         CLEAR     45  31  58 SE5       30.31F
MINERAL WELLS  CLEAR     43  29  57 SE9       30.34S WCI  38
STEPHENVILLE   CLEAR     42  30  61 S3        30.38F
COMANCHE       CLEAR     44  32  64 S7        30.35F WCI  39
BROWNWOOD      MOCLDY    45  30  57 MISG      30.36S
COLEMAN        CLEAR     46  36  68 S6        30.35S
BRADY          CLEAR     45  30  57 SE8       30.35S
$$

TXZ143>147-156>162-174-175-280500-
CENTRAL TEXAS

CITY           SKY/WX    TMP DP  RH WIND       PRES   REMARKS
WACO           CLEAR     41  38  89 S5        30.39F WCI  38
WACO-MCGREGOR  CLEAR     43  27  52 SW3       30.40S
HILLSBORO      CLEAR     46  27  47 SE3       30.38S
CORSICANA      CLEAR     45  29  53 SE6       30.40S
MEXIA          CLEAR     47  30  53 S3        30.38F
HEARNE         CLEAR     42  36  79 CALM      30.42F
CAMERON        CLEAR     48  32  53 S3        30.40F
TEMPLE         CLEAR     45  28  53 CALM      30.38F
KILLEEN        CLEAR     46  31  56 S6        30.38F
KILLEEN-SKYLRK CLEAR     43  28  56 S3        30.37S
FORT HOOD      CLEAR     46  33  60 SE3       30.38F
GATESVILLE     CLEAR     46  32  57 CALM      30.40F
HAMILTON       CLEAR     41  30  64 S9        30.37F WCI  36
LAMPASAS       CLEAR     41  33  71 CALM      30.37F
$$

TXZ095>097-106>112-122>126-135>138-148>153-164>167-280500-
EAST TEXAS

CITY           SKY/WX    TMP DP  RH WIND       PRES   REMARKS
PARIS          CLEAR     39  27  60 E10       30.41S WCI  32
SULPHUR SPRNGS CLEAR     44  26  49 SE7       30.42S WCI  40
MOUNT PLEASANT CLEAR     40  29  64 CALM      30.44S
MINEOLA        CLEAR     37  32  81 CALM      30.42S
TYLER          CLEAR     44  29  55 SE7       30.40S
LONGVIEW       CLEAR     42  32  67 CALM      30.42S
MARSHALL       CLEAR     38  35  87 CALM      30.44S
ATHENS         CLEAR     37  34  87 CALM      30.39F
PALESTINE      CLEAR     48  33  56 E5        30.41F HAZE
JACKSONVILLE   CLEAR     49  27  42 SE3       30.42F
HENDERSON      CLEAR     39  33  80 CALM      30.43S
NACOGDOCHES    CLEAR     37  32  81 CALM      30.43S
LUFKIN         CLEAR     45  36  70 CALM      30.43R
$$

SUPPLEMENTAL OBSERVATIONS (CENTRAL)

CITY           SKY/WX    TMP DP  RH WIND       PRES   REMARKS
LAKE TEXOMA      N/A     43  30  61 CALM        N/A
CADDO GRASSLND   N/A     39  30  70 S3          N/A
PAT MAYSE LAKE   N/A     43  27  52 E8          N/A  WCI  38
GREENVILLE       N/A     43  21  42 SE3         N/A
CEDAR HILL       N/A     48  27  43 SE6         N/A
ATHENS           N/A     43  32  65 E1          N/A
PALESTINE        N/A     37  34  87 CALM        N/A
LAKE LIMESTONE   N/A     45  32  61 SE1         N/A
MCGREGOR         N/A     41  32  70 SW3         N/A
TEMPLE           N/A     50  28  43 S5          N/A
$$

SUPPLEMENTAL OBSERVATIONS (WEST)

CITY           SKY/WX    TMP DP  RH WIND       PRES   REMARKS
MILLERS CREEK    N/A     45  28  53 S6          N/A
POSSUM KINGDOM   N/A     46  27  46 SE7         N/A
LBJ GRASSLAND    N/A     48  25  40 SE7         N/A
GRANBURY         N/A     46  30  53 SE2         N/A
COMANCHE         N/A     45  30  57 S10         N/A  WCI  39
HAMBY            N/A     48  32  53 S12         N/A
IVIE RESERVOIR   N/A     45  32  61 SE6         N/A
COLORADO BEND    N/A     46  32  57 S6          N/A
$$

SUPPLEMENTAL OBSERVATIONS (EAST)

CITY           SKY/WX    TMP DP  RH WIND       PRES   REMARKS
TEXARKANA        N/A     32  28  86 CALM        N/A
LUFKIN           N/A     39  36  87 MISG        N/A
$$

SUPPLEMENTAL OBSERVATIONS ARE A COLLECTION OF AUTOMATED INSTRUMENTS
THAT ARE MAINTAINED BY A VARIETY OF FEDERAL AND STATE AGENCIES.
CERTAIN ELEMENTS...SUCH AS HUMIDITY VALUES AND SUSTAINED WIND
SPEEDS...MAY BE APPROXIMATED.





U.S. Dept. of Commerce
NOAA National Weather Service
1325 East West Highway
Silver Spring, MD 20910
E-mail: w-nws.webmaster@noaa.gov
Page last modified: May 16, 2007
NATIONAL WEATHER SERVICE: for Safety, for Work, for Fun - FOR LIFE